Location: La Silve
(44.2414°N, 5.8889°E)
Time: 20:03:34
(UTC+00:00)

CENTAUR R/B - Pass Details

Date: 13 April 2021
Orbit: 742 x 1446 km, 63.4° (Epoch: 18 April)

Event Time Altitude Azimuth Distance (km) Brightness Sun altitude
Rises 19:01:32 0° 322° (NW) 4,151 6.9 -8.2°
Reaches altitude 10° 19:04:12 10° 324° (NW) 3,268 6.2 -8.6°
Maximum altitude 19:12:22 78° 52° (NE) 1,417 3.3 -10.0°
Enters shadow 19:21:15 10° 139° (SE) 3,538 4.8 -11.4°
